STARLINK-4153, 53037

Orbit data source: Space-Track

STARLINK-4153, 53037 is a payload satellite owned by SpaceX/Seattle (US) in LEO that was launched on Thu, 07 Jul 2022 UTC via an FALCON 9 launch vehicle from the Air Force Eastern Test Range (AFETR). Payload-class satellites include a variety of spacecraft equipped with specific instruments for various scientific and technological missions. These include communications satellites like Starlink; space stations such as the ISS; scientific satellites like the Hubble; Earth observation satellites from companies like Planet Labs, Umbra, and HawkEye 360; GPS; miniature CubeSats for education and research; and military/defense satellites.

Loading next visibility...
Identifier
53037, 2022-076BD
Orbit
LEO
Country
Flag of USUS
Related business
Manufacturer
SpaceX/Seattle
Mission
Operational Commercial Communications
Bus & Motor
STARLINK, Unknown motor
Mass
297 kg wet, ~275 kg dry
Launch date (UTC)
2022-07-07 (3 years ago)
Launch vehicle
FALCON 9
Launch site
Air Force Eastern Test Range (AFETR)
Object type
Payload
Rocket body
Debris
Shape & HBR
Box + 1 Pan, 10.1 m
Radar Cross Section
13.562 m², Large (>1 m²)

Expand to show TLE details & history
Last TLE update: 17 hours ago

TLE from 17 hours ago
0 STARLINK-4153
1 53037U 22076BD  25340.74168775  .00000079  00000-0  23057-4 0  9991
2 53037  53.2169 131.3793 0001240  86.3590 273.7544 15.08841503189095
Epoch: 2025-12-06T17:48Z
TLE epoch observation values (Epoch: 2025-12-06T17:48:01.821Z)
Latitude
-0.00002°
Longitude
148.60663°
Altitude
540.58 km
Speed
7.593 km/s
True Right ascension
08h 45m 31s
True Declination
0° 00' 00"
Sunlit
Object was in full shadow at epoch
Visualization orbit readout
Latitude
Unknown
Longitude
Unknown
Altitude
Unknown
Speed
Unknown
Apparent Right ascension
Unknown
Apparent Declination
Unknown
Sunlit
N/A
Visualization observer readout
Local Sidereal Time
08:33:37
Azimuth
Unknown
Elevation
Unknown
Doppler factor
Unknown
Orbital elements
Apogee altitude
540.842 km
Perigee altitude
539.126 km
Semi-major axis
6,918.121 km
Eccentricity
0.00012
Inclination
53.2169°
RAAN
131.3793°
Arg. of periapsis
86.359°
True anomaly
273.74022°
Mean anomaly
273.7544°
Eccentric anomaly
273.74731°
Mean motion
3.77191 °/min
Orbital period
95.44 mins
BSTAR
0.000023057
Loading maneuver chart data...
Computing Atmospheric mass density...
Loading historical data...
Loading historical data...
Loading historical data...
Loading historical data...
Loading historical data...
Loading historical data...
Loading historical data...

Documentation

Showing up to 5 results
|